Wind_Speed
21 21 20 18 17 17 16 15 15 14 13 13 12 10 9 10 12 14 15 15 15 16 15 14 13 13 13 14 14 15 16 17 18 19 20 21 23 23 22 21 21 20 19 21 23 24 24 23 22 21 20 21 22 22 22 23 24 23 21 19 17 16 16 17 17 17 17 17 18
20 19 18 16 15 15 15 15 14 13 13 13 12 10 9 10 12 14 15 16 17 17 16 14 12 13 13 14 15 15 16 17 18 19 19 21 22 23 23 21 21 19 19 21 23 24 24 23 22 21 20 20 21 21 21 21 22 21 19 18 16 16 16 17 17 17 17 17 17
19 18 16 14 13 14 15 15 14 13 12 12 12 12 11 11 12 14 16 17 18 18 16 13 12 13 13 14 14 15 16 17 17 18 19 20 22 23 23 22 21 19 18 21 22 23 23 23 22 21 19 19 20 20 20 20 20 20 19 17 16 16 16 17 17 17 17 17 17
17 16 15 13 12 14 16 16 14 13 12 11 11 11 11 11 13 15 16 17 18 18 17 14 12 13 13 13 13 14 15 16 17 18 19 20 21 23 23 22 21 19 19 22 23 23 23 22 21 20 19 18 19 19 19 19 19 19 18 17 16 15 16 17 17 16 16 17 17
14 13 12 12 13 15 16 16 14 13 12 11 9 9 9 10 13 15 17 18 18 18 17 14 13 12 13 12 12 13 14 15 16 17 18 19 21 22 23 23 21 19 19 23 24 24 23 22 21 19 18 18 18 18 18 19 19 18 17 16 15 15 16 17 17 17 17 17 17
11 9 9 9 11 13 14 14 13 12 12 10 8 7 8 11 13 16 17 18 18 18 17 14 13 12 12 11 11 12 13 14 15 16 17 18 20 22 23 23 22 19 19 23 24 24 23 22 20 18 17 17 16 17 17 18 18 17 16 15 15 15 16 17 17 17 17 17 17
10 8 6 7 8 10 11 12 12 12 12 10 9 8 10 12 14 16 17 17 17 17 16 14 13 12 12 11 11 11 13 14 15 16 16 17 19 21 22 23 22 19 19 23 23 23 23 22 20 18 16 16 16 16 16 17 17 17 16 16 15 16 17 18 18 18 18 18 18
8 7 5 4 6 8 10 11 12 12 11 10 10 10 12 13 15 16 16 15 15 16 16 14 13 13 12 12 11 12 13 14 14 15 16 17 18 20 22 22 22 19 18 22 23 23 22 21 19 17 16 16 16 16 16 17 17 17 17 17 17 17 18 19 19 19 18 18 17
7 6 5 3 3 6 8 10 11 11 10 10 11 12 13 14 15 15 14 14 16 17 16 14 13 12 12 12 12 12 13 14 15 15 16 16 18 19 21 22 21 19 18 22 23 23 22 20 18 16 15 16 16 17 17 18 18 17 17 18 18 19 19 19 19 19 18 17 17
7 6 5 3 3 4 6 8 9 10 10 10 11 12 13 13 13 13 13 15 17 17 15 12 11 11 12 12 12 13 13 14 15 16 16 16 17 19 20 22 21 19 19 23 24 23 21 19 17 15 15 15 17 17 18 18 18 18 18 19 19 19 19 19 18 18 18 17 17
7 6 5 4 4 4 5 6 7 8 9 10 11 12 12 12 12 12 14 16 17 15 13 11 10 11 12 12 13 12 12 13 15 16 16 17 17 18 20 21 20 19 20 24 24 22 20 18 16 15 15 16 17 18 18 18 18 18 19 19 20 20 19 19 18 18 18 18 18
8 7 5 4 3 3 3 3 4 5 7 9 10 11 11 11 11 13 15 16 15 13 11 9 9 10 12 12 12 11 10 11 14 16 17 17 17 18 19 20 19 19 22 24 24 22 19 17 16 16 16 17 18 18 18 18 18 18 19 19 20 20 20 19 19 19 19 19 20
8 7 6 5 3 2 2 2 3 4 6 8 10 11 12 12 14 14 14 14 13 11 10 9 9 10 11 12 12 12 11 12 13 15 17 17 17 18 19 19 18 20 23 24 23 21 18 17 17 17 17 17 18 18 18 18 18 19 20 20 20 20 21 21 20 20 20 21 21
7 7 6 5 4 3 2 2 3 4 6 8 10 12 13 14 14 13 13 12 12 11 11 10 10 10 11 12 13 12 12 12 14 15 17 17 17 17 18 17 18 21 24 23 22 20 18 18 18 18 18 17 17 17 17 17 18 19 20 20 21 21 21 21 21 21 22 23 23
6 6 5 4 3 2 2 3 4 5 7 9 11 13 14 14 13 12 11 11 11 12 12 11 10 10 11 12 12 12 11 12 13 15 16 17 16 16 15 17 20 23 23 21 20 19 18 18 18 18 17 17 16 16 16 17 18 19 20 21 21 21 22 22 22 23 23 24 23
5 5 4 3 3 2 3 4 6 7 8 10 11 13 13 13 12 11 10 10 11 13 13 12 10 9 10 11 12 11 10 11 13 15 16 15 14 13 13 17 21 23 21 19 19 19 18 17 17 17 16 15 15 15 16 18 19 19 20 21 21 22 22 22 23 23 23 24 23
6 5 5 4 4 4 5 6 8 9 10 11 11 12 12 12 11 10 10 11 13 13 12 11 10 9 10 11 10 10 10 11 14 15 15 14 13 13 14 18 21 21 19 19 20 19 18 17 16 15 15 14 15 17 18 19 20 20 21 22 22 22 22 22 22 23 23 23 23
6 6 6 6 6 6 6 8 10 11 11 11 11 11 11 10 10 11 12 12 12 11 9 7 7 8 9 9 9 8 9 11 13 15 15 15 15 15 16 18 19 19 19 20 20 20 19 18 17 16 15 16 18 19 20 20 21 21 22 22 22 22 22 21 22 22 22 22 23
7 7 7 8 8 9 9 11 12 12 11 10 10 9 9 9 9 10 9 8 7 5 4 2 3 5 6 7 8 9 10 11 13 15 16 16 16 17 18 18 19 20 21 21 20 19 19 19 18 18 18 19 20 21 22 22 22 23 23 22 22 22 21 21 22 22 23 23 23
9 7 7 8 10 10 11 11 10 9 8 7 7 6 6 5 5 5 4 3 2 1 2 4 3 3 4 7 9 11 11 12 14 16 17 16 17 18 19 20 21 21 20 20 19 19 19 19 20 21 22 23 24 24 24 25 25 25 24 24 23 23 23 23 24 24 24 24 24
13 11 9 8 8 8 7 5 4 4 4 4 4 4 4 3 2 2 1 1 2 3 4 4 3 2 5 9 11 11 12 14 16 17 17 17 18 20 21 22 21 21 20 19 19 20 20 21 22 23 25 25 26 27 27 27 27 27 26 26 25 25 25 25 25 25 25 25 25
14 14 13 11 10 9 7 6 5 5 5 5 6 6 6 5 3 2 1 0 0 2 3 4 2 3 7 11 12 11 12 14 15 17 18 19 21 21 21 21 21 21 22 22 22 22 23 23 24 25 26 27 28 28 28 28 28 28 28 28 27 27 26 26 26 26 26 25 24
13 14 14 13 11 10 9 8 7 6 7 7 8 8 7 6 4 3 2 1 1 2 3 3 2 4 9 12 13 13 15 17 18 20 22 22 22 21 20 21 22 23 24 24 25 26 26 26 27 27 28 29 29 29 29 29 30 30 30 30 29 28 27 26 26 25 24 24 23
12 13 13 12 11 9 9 8 8 8 8 8 8 8 7 7 6 5 4 3 2 2 2 2 2 6 10 14 16 18 20 21 23 24 24 24 23 22 22 22 23 24 24 25 26 28 29 29 29 29 29 29 30 29 30 31 32 32 32 31 30 29 28 27 25 24 23 22 20
12 12 12 11 10 9 8 8 8 8 8 8 7 6 6 6 6 5 3 0 2 3 3 4 8 12 16 19 20 21 21 22 23 24 25 25 24 24 23 23 23 23 24 25 27 29 30 30 30 30 30 30 30 30 30 31 31 32 31 31 31 30 29 28 26 25 23 22 20
11 10 10 10 9 8 7 7 8 8 8 8 7 7 6 6 5 7 11 14 16 16 16 18 20 22 24 24 23 22 22 22 22 23 24 25 24 24 24 23 23 23 24 25 27 28 29 30 31 31 31 31 31 31 30 30 30 30 30 31 31 31 31 30 29 28 27 25 24
8 8 8 7 7 6 5 5 6 8 9 9 9 11 16 21 25 27 27 27 27 27 28 28 29 28 27 25 24 23 23 22 22 23 24 24 25 25 24 24 24 24 24 25 27 28 29 30 31 32 33 33 33 32 31 30 30 30 30 31 31 31 31 30 29 29 28 27 26
8 6 6 5 5 4 4 4 5 6 7 11 17 23 26 29 29 29 28 28 28 28 29 28 28 27 26 26 25 25 24 24 24 24 25 26 26 26 26 26 26 25 25 26 27 28 29 31 32 33 34 34 33 33 32 31 31 31 31 30 30 30 29 28 28 27 26 24 24
14 12 11 9 9 8 7 8 9 12 17 22 25 27 27 27 27 26 26 26 26 26 26 26 26 26 26 26 26 26 26 26 26 27 27 28 28 29 28 28 27 27 27 27 28 29 30 32 33 34 35 35 34 33 32 31 30 29 29 28 27 27 26 25 24 23 23 23 22
23 23 22 21 21 21 22 22 23 23 24 25 26 26 26 26 26 26 26 26 26 26 26 26 26 26 26 27 27 27 27 28 28 29 30 30 30 29 29 29 28 28 28 29 30 31 32 33 33 34 35 35 34 32 31 30 29 28 28 27 27 26 26 25 24 23 22 22 23
26 26 27 27 26 27 27 26 26 26 26 26 26 26 27 27 26 26 27 27 27 27 28 28 28 28 28 28 28 29 29 29 30 30 31 31 31 31 30 30 30 29 29 30 31 32 32 33 33 33 33 33 33 32 31 31 31 30 30 29 29 28 28 27 25 24 24 24 24
26 26 26 26 26 26 26 26 26 27 27 27 27 27 27 27 27 27 27 27 28 28 29 29 30 29 30 30 30 30 30 30 30 31 32 32 32 32 32 31 31 30 30 30 31 32 32 33 33 33 34 34 33 33 33 32 32 32 31 31 30 29 28 27 26 25 25 25 25
25 26 27 26 26 26 26 27 27 27 28 28 27 27 26 26 27 27 27 27 28 28 29 29 29 29 29 29 30 30 30 30 31 32 32 33 33 33 32 32 31 30 30 31 32 33 33 34 34 34 34 34 34 33 33 33 32 32 32 31 30 29 28 27 26 26 25 25 24
25 25 26 26 26 26 26 27 28 28 28 28 27 27 26 26 26 26 26 27 27 28 28 28 28 28 28 29 29 29 29 30 31 31 32 33 33 33 32 31 30 30 30 31 32 33 34 34 35 35 35 35 34 34 34 33 33 33 33 32 31 29 29 28 27 26 25 24 23
25 25 25 25 25 26 26 26 27 28 28 28 27 27 27 27 27 26 26 27 28 28 29 29 29 29 29 29 29 30 30 30 30 31 32 33 33 33 32 32 30 30 30 31 32 33 34 34 34 35 35 35 35 34 34 34 34 33 33 32 31 30 29 28 28 27 25 24 23
25 25 25 25 25 26 26 26 27 27 27 27 27 27 27 27 27 27 27 29 30 30 30 30 30 30 30 29 29 29 29 30 31 31 32 33 34 34 34 33 31 30 30 31 32 33 33 33 33 33 34 34 34 34 34 34 33 33 32 31 30 29 28 28 27 26 24 23 22
25 25 26 26 26 26 26 26 26 27 27 27 27 27 27 27 27 27 28 29 30 30 30 31 31 31 30 30 29 29 29 30 31 31 32 33 33 34 33 33 32 31 30 30 31 31 31 31 31 31 32 33 34 34 33 33 32 32 32 31 29 28 27 26 25 24 23 22 21
25 26 26 26 26 26 26 27 27 27 27 27 27 27 27 27 27 27 28 29 30 30 30 31 31 31 31 31 31 31 30 31 32 32 32 32 32 33 33 33 32 31 29 29 29 29 29 29 29 30 31 33 33 34 33 33 32 32 31 30 28 27 26 25 24 23 22 21 20
26 26 27 27 27 27 27 27 27 27 27 28 28 28 28 28 28 28 29 30 30 31 31 31 31 31 32 33 33 33 32 32 32 32 32 32 32 32 33 33 32 30 29 28 28 28 29 29 29 30 31 32 34 34 34 33 33 31 30 29 28 26 25 24 23 22 21 19 18
26 27 27 27 28 28 28 28 28 28 28 28 28 29 29 29 28 29 29 30 31 31 31 31 31 32 32 33 34 34 34 33 33 33 33 33 32 33 33 33 31 29 28 27 27 28 29 29 30 31 32 33 34 34 34 34 32 31 29 27 26 24 23 22 21 20 19 18 17
28 28 28 28 28 28 28 28 28 28 28 28 28 28 29 29 29 29 30 30 30 31 31 31 32 32 32 33 33 33 34 34 33 33 33 33 32 32 32 32 30 28 27 26 26 27 28 29 30 31 33 33 33 33 33 33 31 29 27 25 24 22 21 21 20 20 19 18 17
Wind_Direction
295 290 281 270 259 252 248 242 238 235 234 233 231 229 229 232 236 242 248 255 265 271 267 253 235 222 217 216 219 221 219 215 214 214 215 215 214 214 214 214 213 213 207 194 184 180 179 178 177 177 180 185 187 189 192 194 194 193 191 189 190 191 190 186 183 181 179 179 182
297 293 286 275 264 254 246 237 232 231 233 236 236 233 229 230 235 241 247 254 263 269 268 255 236 223 218 217 218 219 218 215 213 214 214 214 213 213 213 212 211 211 204 191 182 178 176 176 176 177 180 184 186 187 190 193 193 193 191 190 191 190 187 183 180 179 179 180 183
297 291 284 276 266 253 242 232 227 227 231 237 238 235 230 230 235 241 247 253 260 267 269 258 237 224 219 219 219 219 218 214 213 213 214 214 212 212 211 211 210 209 201 188 180 177 175 175 176 177 180 183 185 186 188 191 193 192 191 191 190 187 182 177 175 177 179 181 182
300 290 280 270 260 247 236 227 223 223 228 234 236 231 227 229 234 240 246 251 259 266 267 259 240 226 221 221 221 220 217 214 212 213 214 213 212 211 210 210 210 207 197 184 178 175 174 175 176 178 180 182 184 186 188 190 191 190 188 189 188 182 176 173 174 177 180 180 181
309 296 282 268 254 240 230 222 218 220 226 231 234 229 225 230 235 240 244 250 257 264 266 259 242 229 224 223 222 220 217 214 212 213 214 213 211 210 209 209 209 206 196 184 178 174 174 175 176 178 180 182 184 187 189 190 188 185 184 185 185 181 175 172 176 181 183 180 178
324 310 292 270 249 234 223 216 216 220 226 231 234 231 229 232 235 238 242 249 256 263 265 257 243 232 226 223 221 220 218 215 213 213 214 213 210 209 209 209 209 206 197 186 179 174 173 174 175 177 180 182 184 187 189 187 183 180 178 180 182 182 178 176 180 183 182 177 173
336 326 305 274 246 227 217 216 220 225 229 233 233 231 231 233 234 237 242 249 257 263 262 253 242 234 228 222 220 219 217 215 213 213 213 212 209 208 208 208 209 207 199 188 181 175 173 174 174 176 178 180 181 183 184 182 178 175 174 174 178 180 180 179 182 181 178 173 169
352 350 333 290 245 226 221 222 226 229 231 232 230 230 231 233 235 239 245 252 260 262 258 250 241 234 228 223 221 219 216 213 213 213 213 210 208 207 207 207 208 207 199 188 182 176 173 173 173 175 177 177 176 175 176 175 173 171 170 169 171 175 177 178 178 177 173 170 167
8 8 358 320 261 237 231 232 234 233 230 228 228 229 231 234 239 244 250 257 259 259 255 248 238 232 228 226 224 221 216 212 211 211 211 209 207 205 205 205 208 206 195 184 179 175 173 171 173 173 173 172 169 168 169 170 169 167 167 166 167 169 173 174 174 172 170 169 166
14 11 357 329 296 268 252 242 236 230 225 224 227 231 235 240 246 251 256 258 258 256 253 245 236 230 228 227 228 226 220 212 209 209 210 208 206 204 203 204 207 203 190 179 176 173 171 170 170 168 166 166 164 163 165 167 167 166 165 166 166 166 167 169 170 168 167 167 166
16 9 352 329 310 290 268 248 232 222 221 224 230 236 243 250 256 259 260 258 256 253 249 243 237 232 229 229 232 231 223 212 207 206 207 207 205 203 202 203 205 198 185 177 174 172 170 168 165 162 159 158 159 160 163 166 167 167 166 166 165 164 162 163 165 164 163 164 164
17 12 1 346 330 308 286 259 234 224 226 232 240 248 256 262 263 262 260 259 255 250 246 245 242 237 233 232 234 232 223 210 203 202 205 206 204 202 201 202 202 193 182 175 173 171 168 165 160 155 152 153 155 158 161 165 168 168 166 164 163 161 159 159 160 160 161 162 160
20 20 20 17 12 353 320 286 256 244 243 248 254 261 266 266 262 260 261 262 256 250 246 247 246 242 237 233 233 231 223 207 199 200 203 205 204 202 202 203 198 186 177 173 172 169 166 161 157 153 151 151 152 155 160 166 169 168 165 161 159 157 156 156 157 158 159 159 155
22 26 31 34 32 17 342 301 275 263 260 261 264 267 267 264 262 264 268 267 260 254 252 252 247 240 233 230 230 227 218 203 198 200 203 205 205 205 205 202 190 178 171 169 168 166 162 157 155 154 153 151 150 154 160 167 169 168 164 158 155 154 153 154 155 156 156 154 152
18 23 29 33 31 13 332 304 288 278 272 269 266 265 264 265 268 272 274 270 264 260 259 258 246 232 225 224 224 220 211 203 202 204 205 206 206 206 203 194 181 172 166 163 161 160 158 155 155 154 153 151 151 154 160 164 166 164 161 156 153 152 152 152 154 155 154 152 149
6 9 11 10 0 333 309 298 289 282 277 272 267 266 267 271 275 277 275 271 266 263 261 255 239 225 220 221 219 216 213 212 209 206 204 204 205 203 193 181 174 170 165 158 152 152 154 155 156 155 155 154 155 158 160 161 159 157 154 152 151 151 150 151 152 152 151 149 145
352 351 348 342 327 309 296 289 283 279 278 276 274 275 278 280 279 275 270 266 263 259 253 242 228 219 217 217 218 218 218 213 207 203 201 201 201 195 184 175 172 169 161 150 144 145 149 152 154 156 157 156 158 160 159 155 152 149 147 146 146 147 147 148 148 147 146 143 140
339 335 328 320 308 297 291 287 286 285 283 284 286 288 286 282 275 270 266 263 258 248 234 220 206 200 203 209 208 205 203 204 203 200 198 195 192 186 177 171 168 160 148 141 139 142 145 147 151 154 156 156 157 155 152 147 142 140 139 138 139 139 140 140 141 140 138 135 133
338 324 312 304 298 293 290 290 292 293 293 294 294 289 280 271 268 269 270 266 256 234 203 154 141 160 177 186 178 173 181 197 201 198 193 185 178 171 164 158 151 143 137 136 139 142 143 145 149 151 152 151 148 144 139 135 131 130 129 129 128 129 130 130 131 131 130 129 128
0 341 320 308 302 298 294 291 293 297 301 302 293 282 274 271 273 279 286 294 308 30 65 55 61 109 146 148 145 152 168 187 190 186 180 171 160 150 143 137 133 132 134 138 141 143 145 146 147 147 146 143 137 132 128 125 123 121 121 120 120 121 123 124 125 126 127 127 128
19 12 2 350 339 331 326 322 325 333 335 328 315 310 314 324 307 302 319 1 26 33 30 23 14 71 120 124 126 138 154 164 165 163 157 147 136 128 125 125 126 130 135 140 143 144 145 145 143 140 138 134 130 126 123 121 119 118 117 117 118 119 120 122 123 124 125 126 127
24 24 24 25 24 25 28 35 34 24 14 6 359 352 347 343 319 292 266 210 71 32 18 9 9 92 110 112 116 124 131 133 134 133 129 123 119 117 119 122 127 132 136 138 141 141 140 139 136 133 130 127 125 124 122 121 119 117 117 116 116 116 117 118 119 120 121 123 124
22 24 26 30 33 36 34 29 20 12 10 10 8 2 351 338 320 296 275 275 1 15 11 11 50 113 115 111 111 109 107 104 105 108 111 114 116 117 120 124 128 131 132 134 136 136 134 131 129 127 125 123 121 121 120 120 119 117 116 114 113 111 111 112 113 115 116 118 121
13 17 21 24 26 25 21 13 7 7 11 15 13 4 348 333 320 308 299 300 329 357 7 19 123 132 124 113 106 101 98 96 96 100 106 113 117 120 122 125 127 128 129 131 133 134 132 129 125 123 121 120 119 118 118 118 117 116 115 112 110 107 105 104 105 107 109 111 113
4 10 16 20 20 16 7 357 355 359 6 11 9 359 342 323 310 306 306 323 104 103 103 112 119 118 113 107 102 100 99 98 98 98 102 108 114 118 120 122 123 124 126 128 131 132 131 129 126 122 120 118 116 115 114 114 114 113 112 111 108 105 101 99 98 98 98 99 99
4 9 14 19 18 12 359 345 341 344 349 352 351 355 4 18 36 63 81 89 94 97 98 99 100 100 100 101 102 102 102 103 102 101 100 103 108 112 115 116 117 118 121 124 127 128 128 127 126 123 121 117 115 112 110 110 110 110 109 108 106 104 100 97 94 93 93 93 93
12 15 17 19 14 5 348 332 329 332 339 352 16 42 58 68 73 76 79 80 82 85 88 90 92 94 96 98 100 101 102 103 105 104 102 102 103 105 107 108 109 112 115 119 121 123 123 123 123 121 119 116 114 111 109 108 107 106 106 104 104 102 100 97 95 94 93 94 94
35 33 30 24 15 359 336 324 330 349 16 46 65 70 72 75 77 78 78 77 78 79 82 85 89 92 94 95 97 98 100 101 102 103 102 101 100 100 100 101 103 107 111 114 116 117 118 118 118 117 116 114 111 109 108 106 104 102 101 100 99 99 99 98 97 97 96 96 95
52 53 53 51 49 50 53 57 59 64 70 75 77 78 77 78 78 79 80 81 80 80 81 84 87 90 92 92 94 96 97 98 99 100 100 99 97 96 97 98 100 104 108 111 113 113 114 114 114 113 113 111 109 106 104 102 100 98 97 96 96 97 98 99 100 100 99 98 97
54 56 58 58 60 62 65 68 72 74 77 79 80 80 79 77 77 78 80 81 82 84 86 88 89 89 90 91 93 94 94 96 98 99 98 97 95 95 96 97 99 102 105 108 110 110 111 111 111 110 109 108 107 104 102 101 100 99 98 98 99 101 102 103 104 104 103 102 102
55 57 58 59 61 63 65 68 70 73 75 77 78 78 78 76 76 77 79 81 83 86 89 91 90 89 90 91 92 92 93 94 96 97 97 97 96 96 96 97 98 100 103 105 106 107 108 108 108 108 107 107 106 105 104 103 103 102 102 102 104 105 105 106 107 107 107 107 106
55 57 58 59 61 62 64 67 69 71 73 74 75 76 76 76 77 78 79 81 83 85 87 88 88 88 89 90 90 91 92 93 94 96 97 98 97 97 96 96 97 99 101 103 104 105 106 106 107 107 107 107 107 106 106 105 104 103 103 104 105 106 107 107 108 109 109 108 108
56 58 59 60 61 62 64 66 68 70 72 73 73 73 74 76 77 77 78 79 81 82 83 84 85 86 87 88 89 90 91 93 94 96 97 98 98 97 96 96 96 98 101 102 103 105 106 107 108 108 108 108 107 107 106 105 104 103 102 103 103 105 106 106 107 107 107 107 107
55 57 59 61 62 63 64 66 68 69 70 71 70 71 72 73 74 75 76 78 79 80 81 83 84 85 86 88 89 91 92 93 95 96 97 98 98 98 97 96 97 99 102 103 105 106 107 108 109 109 109 108 107 106 105 104 103 102 101 102 103 104 105 105 106 105 106 106 107
55 57 59 60 62 63 65 66 67 68 68 68 68 68 69 70 71 73 75 78 79 80 80 81 82 84 85 86 88 90 92 93 94 96 97 98 98 98 97 97 99 101 104 105 107 108 109 110 110 110 109 107 106 105 104 103 102 102 103 103 103 104 106 107 107 107 107 108 108
56 58 60 61 62 63 65 66 67 67 67 66 66 66 67 68 70 72 75 78 79 79 79 79 81 81 82 83 85 87 90 92 94 95 96 98 99 98 98 98 99 101 104 106 108 110 111 112 112 111 110 107 105 104 104 103 102 103 104 104 104 104 105 106 106 106 106 107 107
58 60 62 63 63 63 65 66 67 67 66 66 66 66 67 68 70 72 75 77 78 78 78 79 79 79 80 81 82 84 88 91 93 94 95 97 98 98 98 98 99 100 103 106 108 110 112 114 114 114 112 109 107 105 104 103 102 102 102 102 101 102 102 103 103 103 103 103 103
59 61 63 64 64 64 65 65 66 66 66 67 67 67 67 69 70 71 73 76 77 77 77 78 78 78 80 81 82 83 85 88 91 92 93 94 96 97 97 97 97 99 103 106 109 111 113 115 116 116 115 112 109 107 105 103 102 101 100 99 98 98 98 99 99 99 99 100 101
61 63 64 65 66 66 66 66 66 66 67 68 68 68 68 69 70 71 73 76 77 78 78 78 78 79 81 82 82 82 83 85 87 89 90 91 93 95 95 95 95 99 103 108 111 113 114 116 118 118 118 115 113 110 108 106 103 101 100 99 97 96 96 95 95 96 96 96 98
63 64 65 66 67 67 67 67 67 67 68 69 69 69 70 71 72 73 75 77 78 79 79 79 79 80 80 81 81 81 81 82 84 86 88 89 91 93 93 94 94 97 102 107 111 114 115 117 119 120 119 117 115 112 110 108 105 103 101 100 99 97 95 94 93 93 92 92 93
65 65 66 67 68 68 68 68 68 69 70 71 71 72 73 74 75 76 76 77 78 78 79 79 79 79 79 79 79 79 79 80 81 84 86 88 89 90 92 93 93 95 99 104 108 112 114 116 117 119 119 117 115 113 111 109 107 104 103 101 101 99 97 95 92 91 90 90 90
Height
697 696 696 695 694 694 694 695 695 695 696 696 697 698 698 698 698 699 699 699 700 700 700 700 699 699 699 700 700 700 701 701 702 703 703 703 704 704 704 705 705 707 707 708 708 709 710 712 713 715 716 717 718 719 720 721 722 723 724 725 726 728 728 729 730 731 732 733 733
696 695 694 694 693 693 693 694 694 695 695 696 696 697 697 698 698 698 698 698 699 699 699 699 698 699 699 699 699 700 700 701 701 702 703 703 703 703 704 704 705 706 707 707 708 709 710 711 713 714 715 716 718 718 720 721 722 723 724 725 726 727 728 729 730 730 731 732 733
694 694 693 693 693 693 693 693 693 694 695 695 696 696 697 697 697 697 697 698 698 698 698 698 698 698 698 698 698 699 699 700 701 701 702 702 703 703 703 703 704 705 706 707 708 708 709 711 712 714 715 716 717 718 719 720 721 723 723 725 726 727 728 728 729 730 731 732 733
693 692 692 692 692 692 692 692 693 693 694 695 695 696 696 696 697 697 697 697 698 698 698 698 697 697 698 698 698 698 699 699 700 700 701 701 702 702 703 703 704 705 706 707 708 708 709 711 712 713 714 716 717 718 719 720 721 722 723 724 726 726 727 728 729 730 731 732 733
692 691 691 691 691 690 690 691 692 693 694 694 695 695 695 696 696 697 697 697 697 697 697 697 697 697 697 697 698 698 698 699 699 700 700 701 701 702 702 703 703 704 705 706 707 708 709 711 712 713 714 715 717 718 718 719 721 722 723 724 725 726 727 728 729 730 731 731 732
692 691 690 690 690 690 690 691 692 693 693 694 694 695 695 695 696 696 696 696 697 697 697 697 696 696 697 697 697 697 698 698 699 699 700 700 701 701 702 702 703 704 705 706 706 707 708 710 712 713 714 715 716 717 718 719 721 722 723 724 725 726 727 728 729 730 730 731 732
692 691 690 690 690 690 691 691 692 693 693 694 694 694 695 695 695 695 696 696 696 697 697 696 696 696 696 696 696 697 697 698 698 698 699 699 700 701 701 702 703 704 705 705 706 707 708 710 711 713 714 715 716 717 718 719 720 722 723 724 725 726 727 728 728 729 730 731 732
692 692 691 691 691 691 692 692 692 693 693 693 694 694 694 694 695 695 696 696 696 696 696 695 695 695 695 695 696 696 697 697 698 698 698 699 700 700 701 702 702 703 705 705 707 708 708 710 711 713 713 714 715 717 718 719 720 721 723 724 725 726 727 728 728 729 730 731 733
693 693 692 692 692 692 692 692 693 693 693 693 694 694 694 694 695 695 696 696 696 696 695 695 695 695 695 695 695 696 696 697 697 698 698 698 699 700 701 701 702 703 705 705 706 707 708 710 711 712 713 714 715 717 718 719 720 721 723 724 725 726 727 727 728 729 730 732 733
694 694 694 693 693 693 693 693 693 693 693 694 694 694 694 694 695 695 695 695 695 695 694 694 694 694 694 694 695 695 696 696 696 697 698 698 698 699 700 701 702 703 704 705 706 707 708 709 711 712 713 714 715 717 718 719 720 721 723 724 725 726 727 727 728 729 731 732 733
695 695 694 694 694 693 693 693 693 693 694 694 693 694 694 695 695 695 695 695 694 694 694 694 694 694 694 694 694 695 695 695 696 696 697 698 698 699 700 701 702 703 704 704 706 707 708 709 710 712 713 714 715 717 718 719 720 721 723 724 725 725 726 727 728 730 731 732 733
695 695 694 694 694 694 694 694 694 694 694 694 694 694 694 694 694 694 694 694 694 693 693 693 693 693 693 694 694 694 694 695 695 696 697 697 698 698 699 700 701 703 703 704 706 707 708 709 710 711 713 714 716 717 718 719 720 722 723 724 724 725 726 728 729 730 731 732 733
695 695 694 694 694 694 694 694 694 694 694 694 694 694 694 694 694 694 693 693 693 693 693 693 693 693 693 693 693 693 694 694 695 696 696 697 697 698 699 700 701 702 703 704 705 707 708 709 710 712 713 715 716 718 718 720 721 722 723 724 725 725 726 728 729 730 731 732 733
695 695 694 694 694 695 695 695 695 695 695 694 694 693 693 693 693 693 693 693 693 693 693 692 693 693 693 693 693 693 693 694 695 695 696 697 697 698 699 700 701 702 703 704 705 707 708 709 710 712 713 715 717 718 719 721 722 723 723 724 725 726 727 728 729 730 731 732 733
696 695 695 695 695 695 695 696 695 695 695 694 694 693 693 693 693 693 693 693 692 692 692 692 692 692 692 692 693 693 693 694 694 695 696 696 697 698 699 700 701 702 703 704 705 707 708 709 711 712 714 716 718 719 721 722 723 723 724 724 725 726 728 728 729 730 731 732 733
697 696 696 696 696 696 696 696 695 695 695 694 694 693 693 693 693 693 693 692 692 692 692 692 692 691 692 692 692 693 693 694 694 695 695 696 697 698 698 699 700 702 703 704 705 706 708 710 711 713 715 717 718 720 721 722 723 723 724 725 726 727 728 729 730 731 732 733 733
698 697 697 697 696 696 696 696 696 695 695 694 694 693 693 693 693 693 693 692 692 692 691 691 691 691 691 692 692 693 693 693 694 694 695 696 697 698 698 699 700 702 703 704 705 707 709 711 713 714 716 718 719 721 722 723 723 724 725 725 727 728 729 730 731 732 733 733 734
698 698 698 697 697 697 696 696 695 695 694 694 693 693 693 693 693 692 692 692 692 691 691 691 691 691 691 692 692 693 693 693 693 694 695 696 697 698 699 700 701 703 703 704 705 707 710 712 713 715 717 718 720 721 723 723 724 724 725 726 728 729 730 731 732 733 734 735 736
699 698 698 698 697 697 696 696 695 694 694 694 693 693 693 693 692 692 691 691 691 691 691 691 691 691 691 691 692 692 693 693 694 695 696 697 698 698 699 701 702 703 703 704 706 708 711 713 714 716 717 719 721 722 723 724 724 725 726 727 728 730 731 732 733 734 735 736 737
699 698 698 698 697 697 696 696 695 695 694 694 694 693 693 692 692 692 692 691 691 691 691 691 691 691 691 691 692 693 693 694 694 695 696 698 698 699 700 701 702 703 704 706 708 710 712 713 715 717 718 720 721 722 723 724 725 726 727 728 729 731 732 733 734 735 736 737 738
700 699 698 698 697 697 696 696 695 695 695 695 694 693 693 692 692 692 692 691 691 691 691 691 691 691 691 692 692 693 693 694 695 696 697 698 699 699 700 701 702 704 706 708 709 711 713 714 716 718 719 720 721 722 723 724 725 726 727 728 730 731 733 734 735 736 737 738 738
701 700 699 698 698 697 697 696 696 695 695 694 694 693 693 692 692 691 691 691 691 692 692 692 692 692 692 693 693 694 694 695 696 697 698 698 699 700 701 702 704 705 707 709 710 712 713 715 717 718 720 720 721 722 723 724 725 726 728 729 731 733 734 735 736 737 738 739 740
702 701 700 700 699 698 698 697 696 696 695 694 694 693 693 692 692 692 692 692 692 692 693 693 693 693 693 694 695 695 695 696 696 697 698 699 700 701 703 704 706 707 709 710 712 713 715 717 718 719 720 721 722 723 724 725 726 727 729 731 733 734 735 736 737 738 739 740 742
703 702 702 701 700 699 698 697 697 696 696 696 695 694 693 692 692 691 692 692 692 693 693 693 694 695 695 696 697 697 697 697 698 698 700 701 702 703 705 706 708 709 711 712 713 714 715 717 718 720 721 722 723 723 725 726 727 728 730 732 733 735 736 738 739 740 741 742 743
703 703 702 702 701 700 698 698 697 697 697 697 697 696 695 694 693 692 692 692 693 694 694 695 696 696 697 697 698 698 699 699 700 701 702 703 704 705 707 708 710 712 713 714 714 715 716 718 719 720 721 722 723 725 727 728 729 731 732 733 734 736 737 738 740 741 743 744 746
704 703 703 702 702 701 700 699 698 698 698 698 697 697 696 694 693 693 693 694 695 695 696 696 697 697 698 698 699 700 701 703 703 703 704 705 706 708 709 711 712 714 715 716 716 717 718 719 719 720 722 723 724 726 728 730 732 733 734 735 736 737 738 740 742 744 745 747 749
704 704 704 703 703 702 701 700 700 699 699 698 698 697 697 696 695 695 695 695 696 696 697 697 698 698 699 701 702 703 704 705 706 706 707 708 709 710 712 713 714 716 717 718 718 719 720 720 721 722 723 724 726 728 730 732 734 735 736 737 738 738 740 742 744 746 748 750 752
705 705 704 704 703 703 703 702 702 701 701 700 700 699 698 697 697 697 697 698 698 698 698 699 700 701 702 703 704 705 706 707 708 709 710 710 711 713 714 716 717 718 720 720 720 721 722 722 723 723 724 726 728 729 731 733 735 736 738 739 740 741 743 745 747 749 751 752 753
706 706 705 705 704 704 703 703 703 703 703 702 701 701 700 700 700 700 700 700 700 701 701 702 703 704 705 706 707 708 708 709 710 711 712 713 714 716 717 718 720 721 722 722 723 723 724 724 725 726 727 728 730 732 733 735 737 738 740 741 743 744 746 748 750 751 753 753 754
708 707 707 706 705 705 704 704 704 704 704 703 703 703 703 703 703 703 703 703 703 704 704 705 706 706 708 708 709 710 711 712 713 714 714 716 717 718 720 721 723 723 724 724 725 725 726 727 728 728 729 730 731 733 735 737 738 739 741 743 745 746 748 750 751 753 754 754 755
710 709 709 708 708 707 707 707 706 706 706 706 705 705 705 705 705 705 706 706 706 707 707 708 708 709 710 711 712 713 713 714 715 716 717 718 719 721 723 724 725 726 727 727 727 728 728 729 730 731 731 732 733 734 736 738 739 741 743 744 746 748 749 751 753 754 755 755 755
713 712 712 711 710 710 710 709 709 708 708 708 708 708 708 708 708 709 709 709 709 710 710 710 711 712 713 713 714 715 716 717 718 719 720 721 722 723 725 727 728 729 729 729 730 730 731 731 732 733 733 734 735 737 738 739 741 743 744 746 747 749 751 753 754 755 756 756 756
716 715 715 714 714 713 713 712 712 711 711 711 711 711 711 711 712 712 712 712 713 713 713 713 714 715 716 717 717 718 719 720 721 722 723 723 724 726 728 729 731 732 732 732 732 732 733 733 734 734 735 736 738 739 740 742 743 744 746 748 749 751 753 754 755 756 757 757 758
718 718 718 717 717 716 716 715 715 714 714 714 714 714 714 714 714 715 715 716 716 716 716 717 718 718 719 720 720 721 722 723 724 725 725 726 727 728 729 732 733 734 735 734 734 735 735 735 736 737 738 739 740 742 743 744 745 747 748 750 752 753 755 756 757 758 758 759 760
721 721 720 720 720 719 719 718 718 717 717 717 717 718 718 718 718 718 718 718 718 719 719 720 721 721 722 723 723 724 725 726 727 728 728 729 729 730 732 734 736 737 737 737 737 737 737 738 738 739 740 741 743 744 745 746 748 749 751 753 754 756 757 758 758 759 760 761 762
724 724 723 723 723 722 722 721 721 720 720 720 721 721 721 721 721 722 722 721 721 722 722 723 723 724 725 726 727 727 728 729 729 730 731 731 732 733 734 736 738 739 739 739 739 739 740 740 741 742 743 744 745 747 748 749 751 753 754 755 757 758 759 760 761 762 763 763 764
727 727 726 726 725 725 724 724 723 723 723 723 724 724 724 724 724 725 725 724 724 724 725 726 727 727 728 728 730 731 731 732 732 733 734 734 735 736 737 738 740 741 742 742 742 742 743 743 744 745 746 747 748 749 750 752 754 755 756 758 760 761 762 763 763 764 765 766 767
731 730 729 728 728 728 727 727 727 727 727 727 727 727 727 727 728 728 728 727 727 728 728 729 730 731 731 732 733 733 734 735 735 735 736 737 738 738 739 740 742 743 744 744 745 745 746 746 747 748 748 749 750 751 753 754 756 757 759 760 762 763 764 765 766 767 767 768 769
733 733 732 731 731 731 730 730 730 730 730 730 730 730 730 730 731 731 731 731 731 731 732 733 733 734 735 735 735 736 737 738 738 738 739 740 741 741 741 742 744 746 747 748 748 748 749 749 750 750 750 751 752 753 754 756 758 759 761 763 764 765 767 767 768 769 769 770 771
736 736 735 734 734 733 733 733 733 733 733 733 733 733 733 734 734 734 734 734 734 735 735 736 737 738 738 738 738 739 739 740 741 741 742 743 744 744 744 745 747 749 750 751 751 752 752 752 752 753 753 753 754 755 756 758 759 761 763 765 766 767 768 769 770 771 772 773 773
739 738 738 737 737 737 736 736 736 736 736 736 736 737 737 737 737 737 737 738 738 738 738 739 740 740 740 741 741 742 742 743 744 745 746 746 747 748 748 749 750 752 753 754 754 754 754 755 755 755 755 756 757 757 758 759 761 763 765 767 768 769 770 771 772 773 773 774 776